Flag for Australia Weather past 2 weeks in Traralgon, Victoria, Australia

Now
58 °F

Overcast.


Feels Like: 56 °F
Forecast: 44 / 53 °F
Wind: 15 mph from West

Location: Latrobe Valley Airport

Current Time: Sep 16, 2014 at 1:23:22 PM

Latest Report: Sep 16, 2014 at 12:00 PM


Visibility: N/A

Pressure: 29.77 "Hg

Humidity: 88%

Dew point: 55 °F

Location of TraralgonLocation

Historic Weather in Traralgon — Graph

°F

Traralgon temperature yesterday

Maximum temperature yesterday: 59 °F (at 2:00 PM)
Minimum temperature yesterday: 39 °F (at 6:00 AM)
Average temperature yesterday: 49 °F

Past Weeks' High & Low Weather Summary

 TemperatureHumidityPressure
High69 °F (Sep 8, 3:00 PM)100% (Sep 1, 5:00 PM)30.45 "Hg (Sep 1, 5:00 PM)
Low33 °F (Sep 4, 5:00 AM)41% (Sep 7, 2:00 PM)29.59 "Hg (Sep 9, 5:00 PM)
Average51 °F83%30.09 "Hg
* Reported Sep 1 12:00 Noon — Sep 16 12:00 Noon, Traralgon, Weather by CustomWeather, © 2014

Note: Actual official high and low records may vary slightly from our data, if they occured in-between our weather recording intervals... More about our weather records

Advertising

Traralgon weather history for previous 24 hours

 ConditionsComfort  
Time TempWeatherWind HumidityBarometerVisibility
12:00 PM
Sep 16
58 °FOvercast.15 mph88%29.77 "HgN/A
11:00 AM60 °FCool.7 mph89%29.78 "HgN/A
9:00 AM57 °FOvercast.6 mph99%29.78 "HgN/A
8:00 AM55 °FCool.6 mph100%29.79 "HgN/A
6:00 AM53 °FOvercast.5 mph99%29.79 "HgN/A
5:00 AM54 °FCool.8 mph99%29.78 "HgN/A
3:00 AM53 °FOvercast.6 mph99%29.80 "HgN/A
2:00 AM53 °FCool.9 mph100%29.81 "HgN/A
12:00 AM53 °FLow clouds.10 mph100%29.86 "HgN/A
11:00 PM
Sep 15
53 °FCool.8 mph99%29.89 "HgN/A
9:00 PM52 °FOvercast.8 mph98%29.92 "HgN/A
8:00 PM52 °FCool.8 mph95%29.92 "HgN/A
6:00 PM53 °FOvercast.10 mph97%29.92 "HgN/A
5:00 PM55 °FCool.10 mph93%29.92 "HgN/A
3:00 PM58 °FOvercast.13 mph82%29.91 "HgN/A
2:00 PM59 °FCool.10 mph79%29.93 "HgN/A
Weather by CustomWeather, © 2014

See weather overviewHow to use our weather pages